TimeEDT,TemperatureF,Dew PointF,Humidity,Sea Level PressureIn,VisibilityMPH,Wind Direction,Wind SpeedMPH,Gust SpeedMPH,PrecipitationIn,Events,Conditions,WindDirDegrees,DateUTC
12:15 AM,37.4,35.6,93,29.98,10.0,Calm,Calm,-,N/A,,Clear,0,2014-03-22 04:15:00
12:35 AM,39.2,35.6,87,29.98,10.0,South,4.6,-,N/A,,Clear,180,2014-03-22 04:35:00
12:55 AM,39.2,35.6,87,29.96,10.0,South,3.5,-,N/A,,Clear,180,2014-03-22 04:55:00
1:15 AM,37.4,35.6,93,29.96,10.0,Calm,Calm,-,N/A,,Clear,0,2014-03-22 05:15:00
1:35 AM,37.4,35.6,93,29.95,10.0,South,3.5,-,N/A,,Clear,190,2014-03-22 05:35:00
1:55 AM,37.4,35.6,93,29.94,10.0,Calm,Calm,-,N/A,,Clear,0,2014-03-22 05:55:00
2:15 AM,37.4,35.6,93,29.93,10.0,Calm,Calm,-,N/A,,Clear,0,2014-03-22 06:15:00
2:35 AM,37.4,35.6,93,29.92,10.0,Calm,Calm,-,N/A,,Clear,0,2014-03-22 06:35:00
2:55 AM,37.4,35.6,93,29.91,7.0,Calm,Calm,-,N/A,,Clear,0,2014-03-22 06:55:00
3:15 AM,37.4,37.4,100,29.90,7.0,Calm,Calm,-,N/A,,Clear,0,2014-03-22 07:15:00
3:35 AM,37.4,37.4,100,29.89,7.0,Calm,Calm,-,N/A,,Clear,0,2014-03-22 07:35:00
3:55 AM,35.6,35.6,100,29.89,7.0,Calm,Calm,-,N/A,,Clear,0,2014-03-22 07:55:00
4:15 AM,37.4,37.4,100,29.88,10.0,Calm,Calm,-,N/A,,Clear,0,2014-03-22 08:15:00
4:35 AM,41.0,37.4,87,29.87,10.0,Calm,Calm,-,N/A,,Clear,0,2014-03-22 08:35:00
4:55 AM,37.4,37.4,100,29.86,7.0,Calm,Calm,-,N/A,,Clear,0,2014-03-22 08:55:00
5:15 AM,37.4,37.4,100,29.86,10.0,SW,4.6,-,N/A,,Clear,230,2014-03-22 09:15:00
5:35 AM,44.6,35.6,71,29.86,10.0,SW,6.9,-,N/A,,Clear,220,2014-03-22 09:35:00
5:55 AM,44.6,33.8,66,29.85,10.0,SW,4.6,-,N/A,,Clear,220,2014-03-22 09:55:00
6:15 AM,42.8,33.8,70,29.85,10.0,Calm,Calm,-,N/A,,Clear,0,2014-03-22 10:15:00
6:35 AM,39.2,33.8,81,29.85,10.0,Calm,Calm,-,N/A,,Clear,0,2014-03-22 10:35:00
6:55 AM,42.8,33.8,70,29.84,10.0,SW,8.1,-,N/A,,Clear,230,2014-03-22 10:55:00
7:15 AM,46.4,32.0,57,29.84,10.0,SW,6.9,-,N/A,,Clear,230,2014-03-22 11:15:00
7:35 AM,46.4,32.0,57,29.84,10.0,SW,5.8,-,N/A,,Clear,230,2014-03-22 11:35:00
7:55 AM,44.6,32.0,61,29.84,10.0,SW,4.6,-,N/A,,Clear,220,2014-03-22 11:55:00
8:15 AM,48.2,32.0,54,29.84,10.0,SW,8.1,-,N/A,,Clear,220,2014-03-22 12:15:00
8:35 AM,51.8,33.8,50,29.84,10.0,SSW,5.8,-,N/A,,Clear,210,2014-03-22 12:35:00
8:55 AM,53.6,32.0,44,29.84,10.0,SSW,6.9,-,N/A,,Clear,210,2014-03-22 12:55:00
9:15 AM,55.4,33.8,44,29.84,10.0,WSW,6.9,-,N/A,,Clear,240,2014-03-22 13:15:00
9:35 AM,59.0,33.8,39,29.84,7.0,SW,6.9,-,N/A,,Clear,230,2014-03-22 13:35:00
9:55 AM,60.8,32.0,34,29.84,10.0,SSW,16.1,-,N/A,,Clear,200,2014-03-22 13:55:00
10:15 AM,62.6,33.8,34,29.84,10.0,SSW,15.0,20.7,N/A,,Clear,210,2014-03-22 14:15:00
10:35 AM,64.4,33.8,32,29.84,10.0,SSW,9.2,17.3,N/A,,Clear,210,2014-03-22 14:35:00
10:55 AM,66.2,35.6,32,29.84,10.0,SW,13.8,18.4,N/A,,Clear,220,2014-03-22 14:55:00
11:15 AM,68.0,35.6,30,29.84,10.0,WSW,12.7,21.9,N/A,,Clear,250,2014-03-22 15:15:00
11:35 AM,68.0,35.6,30,29.84,10.0,WSW,12.7,21.9,N/A,,Clear,250,2014-03-22 15:35:00
11:55 AM,69.8,33.8,27,29.85,10.0,West,19.6,27.6,N/A,,Clear,270,2014-03-22 15:55:00
12:15 PM,69.8,32.0,25,29.85,10.0,West,16.1,25.3,N/A,,Clear,270,2014-03-22 16:15:00
12:35 PM,69.8,30.2,23,29.86,10.0,West,10.4,27.6,N/A,,Clear,260,2014-03-22 16:35:00
12:55 PM,69.8,30.2,23,29.85,10.0,WNW,9.2,21.9,N/A,,Clear,290,2014-03-22 16:55:00
1:15 PM,69.8,28.4,21,29.86,10.0,NW,11.5,18.4,N/A,,Clear,310,2014-03-22 17:15:00
1:55 PM,69.8,26.6,20,29.86,10.0,WNW,12.7,17.3,N/A,,Clear,300,2014-03-22 17:55:00
2:15 PM,69.8,26.6,20,29.85,10.0,WNW,11.5,18.4,N/A,,Clear,300,2014-03-22 18:15:00
2:35 PM,69.8,26.6,20,29.85,10.0,NW,12.7,19.6,N/A,,Clear,310,2014-03-22 18:35:00
2:55 PM,69.8,24.8,18,29.86,10.0,WNW,6.9,-,N/A,,Clear,290,2014-03-22 18:55:00
3:15 PM,69.8,23.0,17,29.85,10.0,West,10.4,17.3,N/A,,Clear,260,2014-03-22 19:15:00
3:35 PM,69.8,23.0,17,29.86,10.0,West,9.2,-,N/A,,Clear,260,2014-03-22 19:35:00
3:55 PM,69.8,23.0,17,29.86,10.0,West,5.8,18.4,N/A,,Clear,270,2014-03-22 19:55:00
4:15 PM,69.8,24.8,18,29.86,10.0,West,8.1,-,N/A,,Clear,280,2014-03-22 20:15:00
4:35 PM,69.8,23.0,17,29.87,10.0,WNW,10.4,-,N/A,,Clear,300,2014-03-22 20:35:00
4:55 PM,69.8,24.8,18,29.87,10.0,West,9.2,-,N/A,,Clear,270,2014-03-22 20:55:00
5:15 PM,69.8,24.8,18,29.87,10.0,NW,6.9,-,N/A,,Clear,310,2014-03-22 21:15:00
5:35 PM,69.8,23.0,17,29.87,10.0,WSW,9.2,-,N/A,,Clear,240,2014-03-22 21:35:00
5:55 PM,68.0,21.2,17,29.88,10.0,West,12.7,17.3,N/A,,Clear,280,2014-03-22 21:55:00
6:15 PM,68.0,19.4,16,29.89,10.0,WNW,8.1,-,N/A,,Clear,290,2014-03-22 22:15:00
6:35 PM,68.0,19.4,16,29.89,10.0,WNW,13.8,-,N/A,,Clear,290,2014-03-22 22:35:00
6:55 PM,66.2,19.4,17,29.90,10.0,West,11.5,18.4,N/A,,Clear,270,2014-03-22 22:55:00
7:15 PM,62.6,21.2,20,29.91,10.0,WNW,6.9,-,N/A,,Clear,300,2014-03-22 23:15:00
7:35 PM,62.6,21.2,20,29.91,10.0,WNW,6.9,-,N/A,,Clear,300,2014-03-22 23:35:00
7:55 PM,59.0,23.0,25,29.92,10.0,Calm,Calm,-,N/A,,Clear,0,2014-03-22 23:55:00
8:15 PM,53.6,26.6,35,29.93,10.0,ENE,4.6,-,N/A,,Clear,70,2014-03-23 00:15:00
8:35 PM,51.8,28.4,41,29.95,10.0,NE,3.5,-,N/A,,Clear,40,2014-03-23 00:35:00
8:55 PM,53.6,28.4,38,29.96,10.0,ENE,5.8,-,N/A,,Clear,70,2014-03-23 00:55:00
9:15 PM,51.8,28.4,41,29.97,10.0,ENE,3.5,-,N/A,,Clear,60,2014-03-23 01:15:00
9:35 PM,51.8,26.6,38,29.97,10.0,NNE,4.6,-,N/A,,Clear,30,2014-03-23 01:35:00
9:55 PM,50.0,26.6,40,29.98,10.0,Calm,Calm,-,N/A,,Clear,0,2014-03-23 01:55:00
10:15 PM,50.0,28.4,43,29.98,10.0,NNW,4.6,-,N/A,,Clear,340,2014-03-23 02:15:00
10:35 PM,53.6,28.4,38,29.99,10.0,NW,4.6,-,N/A,,Clear,320,2014-03-23 02:35:00
10:55 PM,48.2,28.4,46,29.99,10.0,Calm,Calm,-,N/A,,Clear,0,2014-03-23 02:55:00
11:15 PM,44.6,30.2,57,29.99,10.0,Calm,Calm,-,N/A,,Clear,0,2014-03-23 03:15:00
11:35 PM,44.6,30.2,57,30.00,10.0,Calm,Calm,-,N/A,,Clear,0,2014-03-23 03:35:00
11:55 PM,42.8,30.2,61,30.00,10.0,East,3.5,-,N/A,,Clear,90,2014-03-23 03:55:00